[[{"header":{"parameterUnit":"m.s-1","parameterCategory":1,"la1":30.2991,"la2":30.254,"lo1":-89.0895,"lo2":-89.0444,"dy":0.0017,"dx":0.0017,"nx":28,"ny":28,"refTime":"2025-03-23T03:00:00:Z","depth":0,"parameterNumber":2,"parameterNumberName":"U-component_of_WINDS"},"data":[0,0,0,0,0,0,0,0,0,0,0,0,0,0,0,0,0,0,0,0,0,0,0,0,0,0,0,0,0,0,0,0,0,0,0,0,0,0,0,0,0,0,0,0,0,0,0,0,0,0,0,0,0,0,0,0,0,0,0.9739,0.974,0,0.9809,0.9809,0.981,0.9812,0.9811,0.981,0.9809,0.9884,0.9887,0.989,0,0,0,0,0,0,0,0,0,0,0,0,0,0.9611,0.9614,0.9739,0.974,0.9741,0.9808,0.9809,0.981,0.9812,0.9811,0.981,0.9809,0.9883,0.9887,0.989,0,0,0,0,0,0,0,0,0,0,0,0,0,0.9673,0.9615,0.9739,0.975,0.9751,0.9808,0.9809,0.9811,0.9812,0.9811,0.9809,0.9808,0.9882,0.9886,0.989,0.9943,0,0,0.9903,0.9905,0,0,0,0,0,0,0,0,0.9669,0.9677,0.9747,0.9749,0.9751,0.98,0.9792,0.9855,0.9812,0.9789,0.9809,0.9808,0.9857,0.9864,0.988,0.9946,0.9949,0.9904,0.9906,0.9908,0.9909,0,0,0,0,0,0,0,0.9665,0.9674,0.9767,0.9748,0.975,0.9752,0.9759,0.9804,0.983,0.9791,0.9791,0.9799,0.9858,0.9876,0.9881,0.995,0.9903,0.9907,0.991,0.9911,1.0064,1.0066,0,0,0,0,0,0,0.9658,0.9671,0.9764,0.9769,0.9706,0.9755,0.9764,0.9786,0.9829,0.9835,0.98,0.9799,0.9869,0.9877,0.9884,0.9949,0.9908,0.9912,0.9914,1.0063,1.0065,1.0066,0,0,0,0,0,0,0.9655,0.9666,0.9762,0.972,0.9732,0.9759,0.9784,0.9788,0.9805,0.9836,0.9841,0.9813,0.9868,0.9878,0.9928,0.9951,0.9914,0.9918,1.0061,1.0063,1.0066,1.0078,0,0,0,0,0,0,0.9652,0.9665,0.9684,0.972,0.9734,0.9803,0.9785,0.979,0.9812,0.9811,0.985,0.9855,0.9868,0.9922,0.9932,0.9957,0.9921,1.0059,1.0062,1.0065,1.0076,1.0081,1.0085,0,0,0,0,0,0.9647,0.9686,0.9685,0.9697,0.9759,0.9804,0.9813,0.9826,0.9814,0.9834,0.9854,0.9854,0.9947,0.9927,0.9939,0.9965,1.0058,1.0061,1.0065,1.0074,1.008,1.0085,0,0,0,0,0,0,0.9653,0.9691,0.9691,0.9742,0.977,0.9805,0.983,0.9832,0.9865,0.9863,0.9879,0.9888,0.9938,0.9956,0.9933,1.0018,1.0001,1.0007,1.0004,1.001,1.0014,1.0009,0.9924,0,0,0,0,0,0.966,0.9693,0.9725,0.9767,0.9781,0.9803,0.9824,0.9832,0.9862,0.9874,0.9898,0.9928,0.9965,0.9988,1.0023,1.0078,1.0088,1.0102,1.0107,1.011,1.0116,1.0147,1.0154,1.0078,1.0078,1.0078,0,0,0.9676,0.97,0.972,0.9769,0.9792,0.9827,0.9813,0.9851,0.9877,0.988,0.9928,0.9947,0.9982,1.0035,1.006,1.0052,1.0139,1.0115,1.0117,1.0121,1.0152,1.0159,1.0165,1.008,1.008,1.0079,0,0,0.9722,0.9744,0.9782,0.9804,0.9838,0.9853,0.9862,0.9897,0.9909,0.9957,0.996,0.9993,1.0055,1.008,1.0101,1.0157,1.0158,1.0168,1.0192,1.0223,1.0229,1.0234,1.0255,1.0263,1.0173,1.0173,1.0173,0,0.9738,0.9789,0.9801,0.9839,0.9861,0.9863,0.9903,0.9925,0.9969,0.9985,0.9975,1.0053,1.0077,1.0137,1.015,1.0167,1.0179,1.0164,1.0227,1.0232,1.0238,1.0258,1.0266,1.0174,1.0174,1.0174,1.0174,0,0.9807,0.9843,0.987,0.9912,0.9936,0.9975,0.9994,1.0018,1.0023,1.0039,1.009,1.0118,1.0159,1.0174,1.018,1.0235,1.0229,1.0223,1.0206,1.0246,1.0265,1.0273,1.0176,1.0175,1.0175,1.0175,0,0,0.986,0.9907,0.9917,0.9936,0.9974,1.0003,1.0042,1.0081,1.0102,1.0132,1.0167,1.0219,1.0214,1.0237,1.0247,1.0273,1.0317,1.0264,1.0265,1.0274,1.0381,1.0385,1.0394,1.0318,1.032,1.0321,1.0378,0,0.9911,0.9979,0.9991,1.0051,1.0085,1.0089,1.0123,1.0151,1.0167,1.0199,1.0218,1.0255,1.0244,1.0259,1.0285,1.0306,1.0339,1.0302,1.0352,1.0353,1.0343,1.0404,1.0409,1.0462,1.0385,1.0387,1.0388,0,0.998,1.0011,1.0074,1.0108,1.0123,1.0153,1.0191,1.0221,1.0253,1.0263,1.029,1.0296,1.0338,1.0319,1.0378,1.0353,1.0374,1.0387,1.0389,1.0395,1.0373,1.0413,1.0479,1.0487,1.04,1.0399,1.0398,0,1.0013,1.0071,1.0117,1.0133,1.0173,1.0195,1.0213,1.0243,1.0266,1.0299,1.0315,1.0353,1.0374,1.0404,1.0421,1.0405,1.0479,1.0461,1.049,1.0489,1.0506,1.0505,1.0577,1.0518,1.0518,1.0518,1.0517,0,1.0069,1.0108,1.0132,1.016,1.0204,1.0218,1.0262,1.028,1.0307,1.034,1.0345,1.0376,1.0396,1.043,1.0444,1.0492,1.0501,1.0511,1.0515,1.0511,1.051,1.0526,1.0523,1.052,1.0519,1.0519,1.0518,0,1.0114,1.0131,1.0182,1.0215,1.0225,1.0256,1.0286,1.0314,1.033,1.0371,1.0382,1.0408,1.0448,1.0468,1.0518,1.0528,1.0582,1.0582,1.0571,1.0572,1.06,1.0598,1.0686,1.0699,1.063,1.0631,1.0631,0,1.0149,1.0179,1.0216,1.0238,1.0256,1.0291,1.0315,1.033,1.0354,1.0393,1.0417,1.0458,1.0491,1.0556,1.058,1.0619,1.0621,1.0649,1.0627,1.0623,1.0623,1.0621,1.0625,1.0654,1.0654,1.0655,1.0655,0,1.021,1.0217,1.025,1.0286,1.0314,1.0343,1.0372,1.039,1.0411,1.0438,1.0479,1.0504,1.0556,1.0596,1.0637,1.0657,1.066,1.0662,1.0671,1.0668,1.0661,1.0666,1.0583,1.066,1.066,1.0659,1.0659,1.0659,1.0252,1.0279,1.0309,1.0346,1.0369,1.0397,1.0425,1.0444,1.0478,1.052,1.0527,1.0571,1.0604,1.0658,1.068,1.0715,1.0709,1.0722,1.0725,1.0728,1.073,1.0654,1.0723,1.0723,1.0723,1.0723,1.0722,0,1.0314,1.0334,1.0367,1.0407,1.0437,1.0435,1.0468,1.0493,1.0531,1.056,1.0592,1.064,1.068,1.0707,1.0747,1.077,1.0773,1.0781,1.078,1.0784,1.0733,1.0722,1.0778,1.0778,1.0778,1.0778,1.0778,1.0778,1.035,1.0396,1.0407,1.0465,1.0484,1.0526,1.0545,1.0571,1.0594,1.0647,1.0679,1.0696,1.0725,1.0768,1.0804,1.0811,1.0827,1.0835,1.0842,1.0794,1.0788,1.0782,1.0772,1.0838,1.0838,1.089,1.0891,1.0891]},{"header":{"parameterUnit":"m.s-1","parameterCategory":1,"la1":30.2991,"la2":30.254,"lo1":-89.0895,"lo2":-89.0444,"dy":0.0017,"dx":0.0017,"nx":28,"ny":28,"refTime":"2025-03-23T03:00:00:Z","depth":0,"parameterNumber":3,"parameterNumberName":"V-component_of_WINDS"},"data":[0,0,0,0,0,0,0,0,0,0,0,0,0,0,0,0,0,0,0,0,0,0,0,0,0,0,0,0,0,0,0,0,0,0,0,0,0,0,0,0,0,0,0,0,0,0,0,0,0,0,0,0,0,0,0,0,0,0,1.3017,1.3017,0,1.3076,1.3077,1.3077,1.3106,1.3106,1.3106,1.3106,1.3165,1.3166,1.3168,0,0,0,0,0,0,0,0,0,0,0,0,0,1.2927,1.2929,1.3017,1.3017,1.3018,1.3076,1.3077,1.3077,1.3106,1.3106,1.3106,1.3106,1.3164,1.3166,1.3168,0,0,0,0,0,0,0,0,0,0,0,0,0,1.2974,1.2929,1.3017,1.3039,1.3042,1.3076,1.3077,1.3078,1.3106,1.3106,1.3106,1.3106,1.3164,1.3166,1.3168,1.3183,0,0,1.3176,1.3177,0,0,0,0,0,0,0,0,1.2972,1.2977,1.3035,1.3038,1.3041,1.3084,1.3067,1.3113,1.3106,1.3082,1.3106,1.3106,1.3138,1.3142,1.3153,1.3186,1.3188,1.3176,1.3177,1.3178,1.3179,0,0,0,0,0,0,0,1.2968,1.2975,1.304,1.3036,1.304,1.3046,1.3053,1.3076,1.3109,1.3084,1.3086,1.3093,1.3139,1.3151,1.3155,1.3189,1.3176,1.3178,1.3179,1.318,1.3237,1.3237,0,0,0,0,0,0,1.2962,1.2972,1.3038,1.3042,1.3006,1.3048,1.3055,1.307,1.3109,1.3115,1.3093,1.3094,1.3147,1.3152,1.3157,1.3177,1.3178,1.318,1.3182,1.3237,1.3237,1.3237,0,0,0,0,0,0,1.2959,1.2967,1.3036,1.3008,1.3017,1.305,1.3066,1.3071,1.3083,1.3116,1.3121,1.3099,1.3147,1.3154,1.3177,1.318,1.3181,1.3184,1.3237,1.3237,1.3237,1.3217,0,0,0,0,0,0,1.2957,1.2966,1.2972,1.3008,1.3018,1.3055,1.3066,1.3072,1.3087,1.3089,1.3123,1.3128,1.3148,1.3173,1.3179,1.3183,1.3185,1.3237,1.3237,1.3237,1.3218,1.3217,1.3216,0,0,0,0,0,1.2954,1.2964,1.2973,1.298,1.3027,1.3055,1.3061,1.3083,1.3087,1.3093,1.3115,1.3127,1.3178,1.3175,1.3182,1.3187,1.3237,1.3237,1.3237,1.3218,1.3217,1.3216,0,0,0,0,0,0,1.2927,1.2969,1.2979,1.3001,1.3024,1.306,1.3068,1.3081,1.3103,1.3104,1.3131,1.3138,1.3159,1.3175,1.3171,1.3203,1.3209,1.321,1.3192,1.3191,1.319,1.3186,1.3187,0,0,0,0,0,1.2924,1.2944,1.2979,1.2995,1.3006,1.3035,1.3048,1.3064,1.3089,1.3098,1.3121,1.3144,1.3166,1.3179,1.3201,1.322,1.3228,1.3227,1.3226,1.3225,1.3226,1.3238,1.3238,1.3238,1.3238,1.3238,0,0,1.2918,1.2943,1.2954,1.2991,1.301,1.303,1.3043,1.3063,1.3078,1.3101,1.3125,1.3142,1.317,1.3191,1.3202,1.3205,1.3228,1.3225,1.3224,1.3226,1.3239,1.3239,1.3239,1.3238,1.3238,1.3238,0,0,1.2917,1.2937,1.2954,1.2973,1.3003,1.3023,1.3026,1.306,1.3073,1.3097,1.3115,1.3132,1.3169,1.3188,1.3202,1.3209,1.3221,1.3215,1.321,1.3221,1.3221,1.3221,1.3224,1.3225,1.3216,1.3216,1.3216,0,1.2905,1.2935,1.296,1.2979,1.2995,1.3018,1.3034,1.3052,1.3087,1.3097,1.3101,1.3148,1.3168,1.3194,1.3196,1.3207,1.3212,1.3211,1.3219,1.322,1.322,1.3223,1.3224,1.3215,1.3215,1.3215,1.3215,0,1.292,1.2941,1.295,1.2984,1.3001,1.3019,1.3046,1.306,1.3074,1.3092,1.3117,1.3142,1.3169,1.3176,1.319,1.3205,1.3206,1.3214,1.322,1.3219,1.3222,1.3223,1.3214,1.3214,1.3214,1.3214,0,0,1.2903,1.2951,1.2954,1.297,1.3006,1.3022,1.3041,1.3068,1.308,1.3103,1.312,1.315,1.3158,1.3174,1.319,1.32,1.3204,1.3207,1.3208,1.3206,1.3223,1.3217,1.3218,1.3213,1.3213,1.3213,1.3221,0,1.2907,1.2942,1.2965,1.2991,1.3011,1.3033,1.3049,1.3072,1.309,1.311,1.3129,1.3151,1.3159,1.3169,1.318,1.3201,1.3208,1.3201,1.3228,1.3229,1.3221,1.3219,1.3213,1.3219,1.3222,1.3222,1.3222,0,1.2916,1.2939,1.2968,1.3001,1.301,1.3025,1.3052,1.307,1.3097,1.3109,1.3128,1.3144,1.3165,1.3169,1.3198,1.3193,1.3205,1.3217,1.3218,1.3221,1.3226,1.3223,1.3221,1.3222,1.3224,1.3224,1.3224,0,1.2901,1.294,1.2962,1.2975,1.3015,1.3025,1.3041,1.3068,1.3083,1.3107,1.3117,1.3142,1.3156,1.3175,1.3198,1.3199,1.3225,1.3231,1.3236,1.3235,1.324,1.3239,1.324,1.3248,1.3248,1.3248,1.3247,0,1.2903,1.2919,1.2956,1.297,1.2989,1.3015,1.3033,1.3052,1.3076,1.3093,1.3114,1.3129,1.3159,1.3178,1.3196,1.3217,1.3223,1.3234,1.3238,1.3232,1.3231,1.3241,1.3241,1.3248,1.3248,1.3248,1.3248,0,1.289,1.2915,1.2941,1.2977,1.2986,1.2999,1.3029,1.3043,1.3062,1.3084,1.3091,1.3121,1.3145,1.317,1.3202,1.3214,1.3235,1.3241,1.3226,1.3229,1.3232,1.3232,1.3239,1.3242,1.3247,1.3247,1.3247,0,1.2889,1.2903,1.294,1.2954,1.297,1.2991,1.3007,1.3034,1.3049,1.3081,1.3091,1.3117,1.3139,1.3176,1.32,1.3225,1.3232,1.3233,1.3236,1.323,1.3233,1.3232,1.3233,1.3232,1.3232,1.3232,1.3232,0,1.2886,1.2898,1.292,1.2947,1.2966,1.2988,1.3011,1.3021,1.3052,1.3068,1.3093,1.311,1.3144,1.3169,1.3197,1.3214,1.3228,1.3231,1.3233,1.3227,1.3218,1.3223,1.3224,1.3231,1.3231,1.3231,1.3231,1.3231,1.2879,1.2892,1.2921,1.2945,1.2966,1.2987,1.3002,1.3024,1.3045,1.3075,1.3089,1.3114,1.3141,1.318,1.3197,1.3217,1.3221,1.3224,1.3225,1.3226,1.3224,1.3215,1.3222,1.3222,1.3222,1.3222,1.3222,0,1.2877,1.2897,1.2919,1.2951,1.297,1.2983,1.3009,1.3024,1.3046,1.307,1.3092,1.3121,1.3146,1.3172,1.3199,1.321,1.3217,1.3216,1.3215,1.3219,1.3219,1.3215,1.3209,1.3209,1.3209,1.3209,1.3209,1.3209,1.2878,1.2901,1.2917,1.295,1.297,1.2995,1.3009,1.3029,1.3048,1.308,1.3101,1.3119,1.3144,1.3173,1.3196,1.3203,1.3212,1.3209,1.3218,1.3218,1.3219,1.322,1.3215,1.321,1.321,1.3216,1.3216,1.3216]}]]